This demonstration page uses our WeatherBlox Daily Observations layout. Learn more.

Left ArrowRight Arrow

39.92423, -83.80882

Hourly Observations for November 26, 2018

Temp ( °F °C ) Dew Point ( °F °C ) Humidity (%) Winds ( mph kmh ) Pressure ( in mb ) Visibility ( mi km ) Precip ( " mm )
12:15 am 00:15 Cloudy with Light Thunderstorms 48 9 45 7 87 87 SSE 12 19 29.53 1000 10 16 N/A
12:37 am 00:37 Cloudy with Light Rain 46 8 45 7 93 93 SE 14 22 29.50 999 10 16 N/A
12:56 am 00:56 Cloudy with Rain 47 8.3 45 7.2 93 93 SE 12 19 29.47 998 10 16 N/A
1:54 am 01:54 Cloudy with Rain 46 8 46 8 100 100 SSE 10 17 29.47 998 10 16 N/A
1:56 am 01:56 Cloudy with Light Rain 47 8.3 46 7.8 97 97 SSE 9 15 29.45 997 10 16 N/A
2:56 am 02:56 Cloudy 47 8.3 46 7.8 97 97 SSE 9 15 29.43 997 10 16 0.03 0.76
3:12 am 03:12 Cloudy with Light Rain 46 8 46 8 100 100 SSE 9 15 29.44 997 10 16 0.01 0.25
3:56 am 03:56 Cloudy 48 8.9 45 7.2 89 89 S 12 19 29.40 996 10 16 0.04 1.02
4:12 am 04:12 Cloudy 48 9 45 7 87 87 SSW 12 19 29.41 996 10 16 0.01 0.25
4:51 am 04:51 Cloudy 46 8 43 6 87 87 SSW 14 22 29.44 997 10 16 0.04 1.02
4:56 am 04:56 Cloudy 47 8.3 43 6.1 86 86 SSW 14 22 29.40 996 10 16 0.04 1.02
5:56 am 05:56 Cloudy 46 7.8 40 4.4 79 79 SW 17 28 29.41 996 10 16 0.05 1.27
6:56 am 06:56 Cloudy with Light Rain 43 6.1 39 3.9 86 86 WSW 21 33 29.44 997 10 16 0.04 1.02
7:56 am 07:56 Cloudy 38 3.3 34 1.1 86 86 WSW 22 35 29.49 999 10 16 0.03 0.76
8:56 am 08:56 Cloudy with Light Rain 36 2.2 33 0.6 89 89 SW 20 31 29.52 1000 10 16 0.03 0.76
9:56 am 09:56 Cloudy with Light Rain 35 1.7 33 0.6 93 93 SW 16 26 29.55 1001 5 8 N/A
10:09 am 10:09 Cloudy with Light Rain 34 1 34 1 100 100 SW 17 28 29.59 1002 3 4 0.01 0.25
10:16 am 10:16 Cloudy with Light Rain 34 1 34 1 100 100 SW 17 28 29.59 1002 3 5 0.01 0.25
10:27 am 10:27 Cloudy with Light Rain 34 1 34 1 100 100 SW 20 31 29.59 1002 3 4 0.01 0.25
10:36 am 10:36 Cloudy with Light Rain 36 2 34 1 93 93 WSW 20 31 29.59 1002 4 6 0.01 0.25
10:56 am 10:56 Cloudy with Mist and Fog 35 1.7 34 1.1 96 96 SW 18 30 29.58 1002 5 8 0.01 0.25
11:33 am 11:33 Cloudy with Mist and Fog 36 2 36 2 100 100 WSW 17 28 29.59 1002 5 8 N/A
11:56 am 11:56 Cloudy with Mist and Fog 35 1.7 35 1.7 100 100 WSW 18 30 29.59 1002 5 8 N/A
12:54 pm 12:54 Cloudy with Light Rain 36 2 36 2 100 100 W 15 24 29.62 1003 3 4 N/A
12:56 pm 12:56 Cloudy with Light Rain 36 2.2 36 2.2 100 100 W 16 26 29.62 1003 3 5 N/A
1:33 pm 13:33 Cloudy with Light Rain 36 2 36 2 100 100 WNW 15 24 29.65 1004 10 16 N/A
1:56 pm 13:56 Cloudy 35 1.7 33 0.6 93 93 WNW 18 30 29.65 1004 10 16 N/A
2:21 pm 14:21 Windy with Snow Likely 36 2 32 undefined 87 87 WNW 21 33 29.68 1005 6 10 N/A
2:28 pm 14:28 Cloudy with Light Snow 34 1 32 undefined 93 93 WNW 15 24 29.68 1005 3 4 N/A
2:47 pm 14:47 Cloudy with Light Snow 34 1 34 1 100 100 WNW 15 24 29.71 1006 3 4 N/A
2:56 pm 14:56 Cloudy with Light Snow 33 0.6 32 undefined 96 96 NW 18 30 29.70 1006 3 4 0.01 0.25
3:19 pm 15:19 Cloudy with Light Snow 34 1 32 undefined 93 93 WNW 18 30 29.71 1006 2 3 N/A
3:32 pm 15:32 Cloudy with Light Snow 32 undefined 32 undefined 100 100 WNW 16 26 29.77 1008 2 3 N/A
3:56 pm 15:56 Cloudy with Light Snow 32 undefined 32 undefined 100 100 WNW 16 26 29.75 1007 2 3 N/A
4:10 pm 16:10 Cloudy with Light Snow 32 undefined 32 undefined 100 100 WNW 16 26 29.80 1009 2 2 N/A
4:21 pm 16:21 Cloudy with Light Snow 32 undefined 30 -1 93 93 W 17 28 29.80 1009 3 4 N/A
4:37 pm 16:37 Windy with Snow Likely 32 undefined 30 -1 93 93 WNW 20 31 29.80 1009 3 5 N/A
4:56 pm 16:56 Cloudy with Light Snow 31 -0.6 30 -1.1 96 96 WNW 18 30 29.78 1008 4 6 N/A
5:03 pm 17:03 Cloudy with Light Snow 30 -1 30 -1 100 100 WNW 17 28 29.83 1010 3 4 N/A
5:44 pm 17:44 Cloudy with Light Snow 30 -1 30 -1 100 100 WNW 18 30 29.83 1010 3 5 N/A
5:56 pm 17:56 Cloudy with Light Snow 31 -0.6 30 -1.1 96 96 WNW 16 26 29.81 1010 5 8 N/A
6:11 pm 18:11 Cloudy with Light Snow 30 -1 30 -1 100 100 WNW 15 24 29.85 1011 2 3 N/A
6:27 pm 18:27 Cloudy with Light Snow 30 -1 30 -1 100 100 WNW 14 22 29.85 1011 3 5 N/A
6:56 pm 18:56 Cloudy with Light Snow 31 -0.6 30 -1.1 96 96 WNW 15 24 29.83 1010 3 4 N/A
7:05 pm 19:05 Cloudy with Light Snow 30 -1 30 -1 100 100 WNW 15 24 29.85 1011 3 5 N/A
7:34 pm 19:34 Cloudy with Light Snow 30 -1 30 -1 100 100 W 14 22 29.85 1011 2 3 N/A
7:43 pm 19:43 Cloudy with Light Snow 30 -1 30 -1 100 100 W 14 22 29.85 1011 2 2 N/A
7:56 pm 19:56 Cloudy with Light Snow 31 -0.6 31 -0.6 100 100 W 12 19 29.85 1011 1 2 N/A
8:03 pm 20:03 Cloudy with Light Snow 30 -1 30 -1 100 100 WNW 13 20 29.85 1011 1 2 N/A
8:28 pm 20:28 Cloudy with Light Snow 30 -1 30 -1 100 100 WNW 14 22 29.85 1011 3 4 0.01 0.25
8:44 pm 20:44 Cloudy with Light Snow 30 -1 30 -1 100 100 WNW 12 19 29.88 1012 1 2 0.01 0.25
8:54 pm 20:54 Cloudy with Light Snow 30 -1 30 -1 100 100 WNW 16 26 29.88 1012 2 3 0.01 0.25
8:56 pm 20:56 Cloudy with Light Snow 31 -0.6 31 -0.6 100 100 WNW 15 24 29.85 1011 3 4 0.01 0.25
9:11 pm 21:11 Windy with Snow Likely 30 -1 30 -1 100 100 WNW 20 31 29.88 1012 2 2 N/A
9:17 pm 21:17 Cloudy with Light Snow 30 -1 30 -1 100 100 WNW 18 30 29.88 1012 3 5 N/A
9:45 pm 21:45 Windy with Snow Likely 30 -1 30 -1 100 100 WNW 20 31 29.88 1012 4 6 N/A
9:56 pm 21:56 Cloudy 31 -0.6 29 -1.7 92 92 WNW 20 31 29.87 1012 9 14 N/A
10:24 pm 22:24 Cloudy 30 -1 27 -3 86 86 WNW 22 35 29.91 1013 10 16 N/A
10:56 pm 22:56 Cloudy with Light Snow 30 -1.1 27 -2.8 88 88 WNW 18 30 29.89 1012 9 14 N/A
11:03 pm 23:03 Cloudy 30 -1 27 -3 86 86 WNW 14 22 29.91 1013 9 14 N/A
11:27 pm 23:27 Windy with Snow Likely 28 -2 27 -3 93 93 WNW 23 37 29.91 1013 9 14 N/A
11:56 pm 23:56 Windy with Snow Likely 29 -1.7 26 -3.3 89 89 W 21 33 29.90 1013 9 14 N/A

Powered by AerisWeather